Regional Weather Roundup
Issued by NWS Newport/Morehead, NC

Current Version | Previous Version | Graphics & Text | Print | Product List | Glossary Off
Versions: 1 2 3 4 5 6 7 8 9 10 11 12 13 14 15 16 17 18 19 20 21 22 23 24 25 26 27 28 29 30 31 32 33 34 35 36 37 38 39 40 41 42 43 44 45 46 47 48 49 50

000
ASUS42 KMHX 232225
RWRMHX
WEATHER ROUNDUP FOR EASTERN NORTH CAROLINA
NATIONAL WEATHER SERVICE NEWPORT/MOREHEAD CITY NC
600 PM EDT SAT JUL 23 2016

NOTE: "FAIR" INDICATES FEW OR NO CLOUDS BELOW 12,000 FEET
WITH NO SIGNIFICANT WEATHER AND/OR OBSTRUCTIONS TO VISIBILITY

NCZ015>017-031-032-045>047-102-103-232300-
NORTH COAST

CITY           SKY/WX    TMP DP  RH WIND       PRES   REMARKS
EDENTON        SUNNY     93  73  51 SW8       29.93F HX 102
ELIZABETH CITY SUNNY     92  74  55 SW10      29.92F HX 101
KITTY HAWK     CLEAR     94  75  55 SW5       29.92F HX 105
MANTEO           N/A     90  79  69 SW14      29.94R HX 105

$$

NCZ045>047-081-094-103-104-232300-
CENTRAL COAST

CITY           SKY/WX    TMP DP  RH WIND       PRES   REMARKS
FRISCO         SUNNY     86  76  71 SW9G18    29.97S

$$

NCZ095-097-098-100-101-232300-
SOUTHERN COAST

CITY           SKY/WX    TMP DP  RH WIND       PRES   REMARKS
BEAUFORT       SUNNY     86  76  71 S13       29.98S
CEDAR ISLAND   NOT AVBL
JACKSONVILLE   SUNNY     88  74  63 S12       29.96S
PINEY ISLAND   NOT AVBL
WILMINGTON     SUNNY     86  72  62 SW8       29.97R


$$

NCZ011>013-027>030-043-044-078>080-089-090>093-098-232300-
COASTAL PLAIN

CITY           SKY/WX    TMP DP  RH WIND       PRES   REMARKS
AHOSKIE        SUNNY     88  79  74 CALM      29.93F HX 103
CLINTON        MOSUNNY   90  77  64 S3        29.95F HX 102
ELIZABETHTOWN  RAIN      84  73  70 W10       29.97R
GOLDSBORO      LGT RAIN  91  75  59 VRB1      29.93F HX 102
GREENVILLE     MOSUNNY   93  75  55 SW9       29.96S HX 104
HAVELOCK       SUNNY     88  73  61 S9G20     29.98S
KENANSVILLE    SUNNY     90  73  56 CALM      29.95S
KINSTON        MOSUNNY   93  73  52 S8        29.95F HX 102
NEW BERN       SUNNY     90  72  55 SW9       29.97S
RICHLANDS      MOSUNNY   90  77  65 S9        29.96S HX 103
ROCKY MOUNT    SUNNY     93  75  55 SW5       29.95S HX 104
WASHINGTON     MOSUNNY   91  74  57 SW6       29.94S HX 100
WHITEVILLE     PTSUNNY   90  77  66 S8        29.95S HX 102

$$

AMZ130-135-150-152-154-156-158-170-250-252-270-ANZ085-086-088-633-658-670-232300-
MARINE OBSERVATIONS

STATION/POSITION TIME  TEMP    WIND        PRES    WAVE   SWELL
                       AIR SEA DIR/SP/G            HT/PER HT/PER
                 (UTC) (F)     (DEG/KT/KT) (MB)    (FT/S) (FT/S)
CHESAPEAKE LIGHT NOT AVBL
64 E VA BEACH    2150   82 81  210/ 14/ 16 1013.2    3/ 9   2/ 9
DUCK             2200      64                N/A
2 E DUCK         2111      75                N/A     2/ 8
OREGON INLET     2200      84                N/A
13E OREGON INLT  2200      82                N/A     2/ 8   2/ 8
HATTERAS CG      2200      83                N/A
DIAMOND BUOY     2150   85 86  220/ 14/ 14 1014.8    2/ 8   2/ 8
CAPE LOOKOUT     2200   85     200/ 11/ 12 1014.9
BEAUFORT LAB     2200      84                N/A
30 SE NEW RVR IN 2208   85 85  200/ 12/ 14 1015.2
30 SE NEW RVR IN 2125      85                N/A     2/ 9
27 SE WRIGHTSVLE 2208   84 85  200/ 10/ 14 1015.3
5 SE WRIGHTSVLE  2208   83 84  190/ 12/ 16 1015.8
225 S CAPE HAT   2150   83 87  100/  4/  6 1016.0    3/ 9   3/ 9
41 SE CHARLESTON 2150   85 87  180/  8/ 10 1015.1    2/ 8   2/ 8

$$




USA.gov is the U.S. government's official web portal to all federal, state and local government web resources and services.